AirNav   Air Wisconsin pilot careers
 
 1111 users online  

4Y9 Eagles Landing Airport
Harrietta, Michigan, USA

GOING TO HARRIETTA?


FAA INFORMATION EFFECTIVE 28 MARCH 2019

Location

FAA Identifier: 4Y9
Lat/Long: 44-18-30.0170N / 085-46-20.2410W
44-18.500283N / 085-46.337350W
44.3083381 / -85.7722892
(estimated)
Elevation: 1010 ft. / 307.8 m (surveyed)
Variation: 04W (1985)
From city: 3 miles W of HARRIETTA, MI
Time zone: UTC -4 (UTC -5 during Standard Time)
Zip code: 49638

Airport Operations

Airport use: Open to the public
Activation date: 02/1972
Control tower: no
ARTCC: MINNEAPOLIS CENTER
FSS: LANSING FLIGHT SERVICE STATION
NOTAMs facility: LAN (NOTAM-D service available)
Attendance: UNATND
Wind indicator: yes
Segmented circle: no

Airport Communications

CTAF: 122.9
WX AWOS-3 at CAD (15 nm E): 128.325 (231-779-9536)

Nearby radio navigation aids

VOR radial/distance  VOR name  Freq  Var
MBLr089/20.8MANISTEE VOR/DME111.4005W
TVCr206/23.6TRAVERSE CITY VOR/DME114.6002W

 
NDB name  Hdg/Dist  Freq  Var  ID
WEXOR298/10.633604WMA -- .-

Airport Services

Airframe service: NONE
Powerplant service: NONE
Bottled oxygen: NONE
Bulk oxygen: NONE

Runway Information

Runway 8/26

Dimensions: 2400 x 100 ft. / 732 x 30 m
Surface: turf, in poor condition
RY SFC ROUGH & UNEVEN.
Runway edge markings: 08/26 MKD WITH 3 FT YELLOW CONES.
RUNWAY 8  RUNWAY 26
Latitude: 44-18.459167N44-18.594000N
Longitude: 085-47.269667W085-46.115833W
Elevation: 1010.0 ft.1010.0 ft.
Traffic pattern: leftleft
Runway end identifier lights: nono
Obstructions: 60 ft. trees, 60 ft. left and right of centerline
APCH RATIO 20:1 OVR +60 FT TREES, 1200 FT DSTC, BASED ON STRAIGHT OUT.
60 ft. trees, 95 ft. left and right of centerline
APCH RATIO 22:1 OVR +106 FT TREE, 2400 FT DSTC, BASED ON STRAIGHT OUT.

Airport Ownership and Management from official FAA records

Ownership: Privately-owned
Owner: KEN WARD
4196 E STATE RD
PORT CLINTON, OH 43452-2631
Phone (419) 341-1503
Manager: MIKE WOODLEY
3853 APOLLO DR
MIDLAND, MI 48642-6354
Phone (586) 944-7101

Airport Operational Statistics

Aircraft based on the field: 2
Single engine airplanes: 2
    
Aircraft operations: 100/year *
50% transient general aviation
50% local general aviation
* for 12-month period ending 31 December 2016

Additional Remarks

60 FT TREES BOTH SIDES OF RY 100 FT FM RY CNTRLN.
LARGE DEPRESSION E OF RY 26.
ARPT CLSD WHEN SNOW COVERED.

Instrument Procedures

There are no published instrument procedures at 4Y9.

Some nearby airports with instrument procedures:

KCAD - Wexford County Airport (15 nm E)
KMBL - Manistee County-Blacker Airport (20 nm W)
7D3 - Baldwin Municipal Airport (26 nm S)
KFKS - Frankfort Dow Memorial Field (26 nm NW)
KTVC - Cherry Capital Airport (27 nm N)
 
Loc | Ops | Rwys | IFR | FBO | Links
Com | Nav | Svcs | Stats | Notes
Area around 4Y9 (Eagles Landing Airport)
 
Road maps at: MapQuest Bing Google
 
Aerial photo
WARNING: Photo may not be current or correct
Aerial photo of 4Y9 (Eagles Landing Airport)
Photo by Martin Siegwart
Photo taken 02-Oct-2014
looking east.

Do you have a better or more recent aerial photo of Eagles Landing Airport that you would like to share? If so, please send us your photo.

 
Sectional chart

 
Airport distance calculator
Flying to Eagles Landing Airport? Find the distance to fly.

From to 4Y9

Sunrise and sunset
Times for 22-Apr-2019
 Local
(UTC-4)
 Zulu
(UTC)
Morning civil twilight06:1810:18
Sunrise06:4910:49
Sunset20:3500:35
Evening civil twilight21:0501:05

Current date and time
Zulu (UTC)  23-Apr-2019 01:15:50
Local (UTC-4)  22-Apr-2019 21:15:50
 
METAR
KCAD 
15nm E 
230055Z AUTO 21006KT 10SM OVC100 21/05 A2991 RMK AO2 T02150050
KMBL 
21nm W 
230056Z AUTO 36003KT 10SM BKN080 OVC100 11/06 A2988 RMK AO2 WSHFT 0005 RAB05E56 SLP140 P0000 T01110061
KFKS 
26nm NW 
230056Z AUTO 11003KT 10SM -RA OVC090 12/07 A2991 RMK AO2 T01200066
KTVC 
27nm N 
230053Z 00000KT 10SM -RA OVC080 11/05 A2992 RMK AO2 RAB43 SLP133 P0000 T01110050
TAF
KMBL 
21nm W 
221747Z 2218/2318 19012KT P6SM SCT200 FM222300 18010G19KT P6SM VCSH BKN100 FM230300 16010G19KT 6SM -SHRA BR VCTS OVC050CB FM230700 20011G19KT 6SM -SHRA BR VCTS OVC028CB FM230900 31009KT 6SM -SHRA BR OVC007 FM231100 34013G24KT 6SM -SHRA BR OVC007 FM231400 34018G31KT P6SM OVC010 FM231700 33021G30KT P6SM BKN035
NOTAMs
Click for the latest NOTAMs
NOTAMs are issued by the DoD/FAA and will open in a separate window not controlled by AirNav.

 

 
 

Would you like to see your business listed on this page?

 If your business provides an interesting product or service to pilots, flight crews, aircraft, or users of the Eagles Landing Airport, you should consider listing it here.  To start the listing process, click on the button below
 
Add a business
 

Other Pages about Eagles Landing Airport

Page from the Michigan Airport Directory (PDF)
 
Update a link
 
Copyright © AirNav, LLC. All rights reserved. Privacy Policy  Contact